Regional Weather Roundup
Issued by NWS

Home | Current Version | Previous Version | Graphics & Text | Print | Product List | Glossary On
Versions: 1 2 3 4 5 6 7 8 9 10 11 12 13 14 15 16 17 18 19 20 21 22 23 24 25 26 27 28 29 30 31 32 33 34 35 36 37 38 39 40 41 42 43 44 45 46 47 48 49 50
000
ASUS43 KMPX 230110
RWRMN
WEATHER ROUNDUP FOR MINNESOTA
NATIONAL WEATHER SERVICE TWIN CITIES/CHANHASSEN MN
800 PM CDT MON MAY 22 2017


NOTE: "FAIR" INDICATES FEW OR NO CLOUDS BELOW 12,000 FEET WITH NO
SIGNIFICANT WEATHER AND/OR OBSTRUCTIONS TO VISIBILITY. N/A MEANS
CURRENT SKY AND/OR WEATHER CONDITIONS ARE NOT AVAILABLE.

MNZ060>063-068>070-230200-
   Twin Cities Metro

CITY           SKY/WX    TMP DP  RH WIND       PRES   REMARKS
TWIN CITIES    MOCLDY    61  40  45 NW12      29.81S
ST PAUL        PTCLDY    60  41  49 NW8       29.82S
CRYSTAL        MOCLDY    60  40  47 NW10      29.81R
BLAINE         PTCLDY    61  43  51 N6        29.82R
LAKEVILLE      CLOUDY    59  45  58 N9        29.81S
EDEN PRAIRIE   MOCLDY    61  42  49 NW7       29.81S
SOUTH ST PAUL  PTCLDY    61  39  43 NW6       29.81S
LAKE ELMO      FAIR      59  43  55 N3        29.82S
$$
MNZ001>005-007-008-013>017-022>024-027-028-230200-
   Northwest Minnesota

CITY           SKY/WX    TMP DP  RH WIND       PRES   REMARKS
BEMIDJI        DRIZZLE   46  43  91 NW7       29.85R
HALLOCK        DRIZZLE   50  46  87 N13       29.90R
ROSEAU         DRIZZLE   52  45  76 N12       29.87R
WARROAD        DRIZZLE   48  45  87 N6        29.88R
THIEF RVR FALL CLOUDY    48  43  81 N8        29.88R
CROOKSTON      CLOUDY    50  46  87 N7        29.88S
FOSSTON        CLOUDY    46  45  93 NW6       29.86S
DETROIT LAKES  RAIN      46  43  87 N13       29.87S
MOORHEAD       RAIN      48  45  87 N12       29.89S
PARK RAPIDS    CLOUDY    48  40  73 NW12      29.84R
MAHNOMEN       CLOUDY    47  44  90 N6        29.86S
$$
MNZ006-009>011-018-025>026-230200-
   North Central Minnesota

CITY           SKY/WX    TMP DP  RH WIND       PRES   REMARKS
BAUDETTE       LGT RAIN  48  46  93 N9        29.84R
FLAG ISLAND    CLOUDY    48  43  81 N17       29.86R
INTL FALLS     CLOUDY    49  42  77 NW9       29.82R HAZE
WASKISH        CLOUDY    48  45  87 N7        29.84R
BIG FORK       LGT RAIN  46  45  93 CALM      29.82S
LONGVILLE      DRIZZLE   46  45  93 CALM      29.83S
GRAND RAPIDS   CLOUDY    48  45  89 N5        29.84R
CRANE LAKE     CLOUDY    46  41  81 NW3       29.83R
ORR            CLOUDY    46  43  87 CALM      29.79R
COOK           CLOUDY    48  43  81 W7        29.82R
WALKER         RAIN      45  42  90 NW6       29.84R
$$
MNZ012-019>021-037-230200-
   Northeast Minnesota

CITY           SKY/WX    TMP DP  RH WIND       PRES   REMARKS
DULUTH         MOCLDY    52  44  74 W5        29.80S
ELY            CLOUDY    48  45  87 CALM      29.80S
HIBBING        CLOUDY    47  43  86 NW5       29.81S
EVELETH        CLOUDY    50  41  71 NW3       29.82S
DULUTH HARBOR  CLOUDY    55  46  71 SW7       29.82R
TWO HARBORS    CLOUDY    54  45  71 N3        29.79R
SILVER BAY     CLOUDY    52  46  82 CALM      29.78S
GRAND MARAIS     N/A     42  39  89 SW9       29.79R
G MARAIS ARPRT CLOUDY    46  39  76 CALM      29.80R
$$
MNZ029>031-032-039>041-046>048-054>057-064-230200-
   West Central Minnesota

CITY           SKY/WX    TMP DP  RH WIND       PRES   REMARKS
FERGUS FALLS   CLOUDY    50  43  76 N13G22    29.86R
WHEATON        CLOUDY    54  39  58 NW10      29.90R
MORRIS         MOCLDY    54  46  76 NW15      29.86S
ALEXANDRIA     CLOUDY    52  42  69 NW10      29.85S
ELBOW LAKE     CLOUDY    51  42  72 NW12      29.87R
WADENA         CLOUDY    48  41  76 NW12      29.84S
GLENWOOD       CLOUDY    54  43  66 NW13      29.85S
APPLETON       CLOUDY    55  43  62 N13       29.87R
BENSON         PTCLDY    55  43  62 N10       29.88R
ORTONVILLE     CLOUDY    54  43  66 N14       29.88R
MADISON        CLOUDY    57  45  62 N14G20    29.88R
WILLMAR        FAIR      57  43  58 NW15      29.86R
$$
MNZ033>034-036-042>043-049>051-058-059-230200-
   Central Minnesota

CITY           SKY/WX    TMP DP  RH WIND       PRES   REMARKS
ST CLOUD       PTCLDY    55  42  61 NW10      29.83R
SAUK CENTRE    CLOUDY    53  40  60 NW12      29.84S
PAYNESVILLE    CLEAR     55  40  55 NW12      29.84S
AITKIN         DRIZZLE   48  45  87 CALM      29.81S
PINE RIVER     CLOUDY    50  43  76 NW6       29.87R
BRAINERD       CLOUDY    51  40  65 NW13      29.83R
STAPLES        CLOUDY    50  39  66 NW8       29.84R
LONG PRAIRIE   CLOUDY    52  41  66 W6        29.84S
LITTLE FALLS   CLOUDY    54  37  54 NW10      29.84R
LITCHFIELD     MOCLDY    59  43  55 NW9       29.84R
BUFFALO        MOCLDY    59  42  53 N6        29.84R
MAPLE LAKE     PTCLDY    58  45  61 N7        29.84R
HUTCHINSON     CLOUDY    59  45  61 NW9       29.85R
$$
MNZ037-044-045-052-053-230200-
   East Central Minnesota

CITY           SKY/WX    TMP DP  RH WIND       PRES   REMARKS
PRINCETON      PTCLDY    55  43  62 NW5       29.83S
MORA           CLOUDY    50  43  76 CALM      29.84S
CAMBRIDGE      CLOUDY    59  45  58 NW3       29.81S
RUSH CITY      CLOUDY    55  43  64 CALM      29.83S
MOOSE LAKE     CLOUDY    52  41  66 CALM      29.81S
HINCKLEY       CLOUDY    52  45  76 NW3       29.83R
CLOQUET        CLOUDY    52  43  71 CALM      29.81S
MCGREGOR       CLOUDY    50  43  76 W3        29.83R
$$
MNZ071>073-080-081-089-090-097-098-230200-
   Southwest Minnesota

CITY           SKY/WX    TMP DP  RH WIND       PRES   REMARKS
MONTEVIDEO     MOCLDY    57  43  58 N15G22    29.86R
GRANITE FALLS  CLOUDY    59  46  63 VRB14     29.87R
CANBY          CLOUDY    57  45  63 N10G23    29.89R
MARSHALL       LGT RAIN  53  48  83 NW8       29.87R
REDWOOD FALLS  CLOUDY    56  46  69 NW5       29.84R
OLIVIA         CLOUDY    59  43  55 N12       29.84R
PIPESTONE      LGT RAIN  52  45  76 N5        29.88S
WINDOM         RAIN      52  48  87 N12       29.86R
WORTHINGTON    MOCLDY    51  46  83 N21       29.86R
JACKSON        DRIZZLE   54  50  87 N12       29.84S
TRACY          DRIZZLE   52  49  91 W8        29.88R
SLAYTON        CLOUDY    49  47  92 NW12      29.88S
$$
MNZ065>067-074>077-082>085-091>093-230200-
   South Central Minnesota

CITY           SKY/WX    TMP DP  RH WIND       PRES   REMARKS
MANKATO        RAIN      58  50  75 W5        29.84
NEW ULM        LGT RAIN  55  48  76 W3        29.85R
ST JAMES       LGT RAIN  54  52  94 N12       29.86S
FAIRMONT       LGT RAIN  55  52  89 N7        29.84R
GLENCOE        CLOUDY    60  50  69 N10       29.82S
FARIBAULT      CLOUDY    61  48  63 NW6       29.82R
OWATONNA       PTCLDY    61  48  63 NW6       29.82R
WASECA         LGT RAIN  57  48  72 W7        29.84R
ALBERT LEA     HVY RAIN  59  52  77 NW8       29.82R
$$
MNZ078>079-086>088-094>096-230200-
   Southeast Minnesota

CITY           SKY/WX    TMP DP  RH WIND       PRES   REMARKS
ROCHESTER      CLOUDY    60  47  61 N7        29.81R
RED WING       MOCLDY    63  41  45 N3        29.79S
STANTON        MOCLDY    60  48  64 NW6       29.80R
DODGE CENTER   CLOUDY    61  46  59 NW7       29.81R
WINONA         PTCLDY    63  46  55 CALM      29.79F
AUSTIN         CLOUDY    61  48  63 N5        29.80R
PRESTON        MOCLDY    61  48  63 NE3       29.80S
$$
ABBREVIATIONS USED IN REMARKS
   TC - TEMPERATURES IN CELSIUS
  WCI - WIND CHILL INDEX
   HX - HEAT INDEX
  VSB - VISIBILITY
$$



USA.gov is the U.S. government's official web portal to all federal, state and local government web resources and services.